EGYPTSAT 2

导读 | 星芒AI

EGYPTSAT 2 是埃及于2019年发射的第二颗纳米卫星,由埃及微纳米卫星实验室研发,重约1.3公斤。该卫星主要用于教育和科研目的,搭载了高分辨率摄像头和无线通信模块,支持图像传输和业余无线电通信。EGYPTSAT 2 的成功发射标志着埃及在航天技术自主发展方面迈出了重要一步,增强了其在卫星设计、制造和操作方面的能力,同时为学生和研究人员提供了宝贵的实践机会。

基本信息
目录编号:
39678
目录名称:
EGYPTSAT 2
国际标识:
2014-021A
轨道中心:
EARTH
卫星名称:
EGYPTSAT 2
卫星全名:
--
卫星状态:
在轨 (已飞行4259 天)
发射日期:
2014-04-16 UTC
国别 :
埃及 (EG)
星等 :
--
轨道信息
数据来源 国际轨道数据
星历时间: 2025-12-13T08:12:30+0800
9小时前
查看轨道信息
半长轴: 7084.493km
偏心率: 0.000099
轨道倾角: 51.617°
近地点辐角 69.000°
升交点赤经 249.364°
平近点角 291.106°
近地点: 705.656km
远地点: 707.06km
周期: 98.906分钟
每日圈数: 14.559271
详细信息
使用方式:
暂无
2D轨道图
3D轨道图
轨道高度分析图
轨道倾角分析图
轨道综合分析图
查看轨道综合分析图